Radiation Dose at Monitoring Post of Fukushima Daini Nuclear Power Station
Date,Time,MP-1(microSv/h),MP-2(microSv/h),MP-3(microSv/h),MP-4(microSv/h),MP-5(microSv/h),MP-6(microSv/h),MP-7(microSv/h),Wind Direction,Wind Velocity(m/s),Rain
2018/12/30,00:00,0.224,0.193,0.312,0.293,0.276,0.156,0.094,west-northwest,6.6,No
2018/12/30,00:10,0.225,0.191,0.310,0.292,0.277,0.156,0.095,west-northwest,5.7,No
2018/12/30,00:20,0.225,0.193,0.313,0.291,0.279,0.156,0.095,west-northwest,5.8,No
2018/12/30,00:30,0.224,0.192,0.312,0.293,0.277,0.155,0.094,west-northwest,6.5,No
2018/12/30,00:40,0.224,0.193,0.312,0.293,0.276,0.155,0.094,west-northwest,5.6,No
2018/12/30,00:50,0.224,0.192,0.312,0.292,0.275,0.155,0.094,west-northwest,4.3,No
2018/12/30,01:00,0.224,0.192,0.311,0.293,0.277,0.155,0.094,west-northwest,5.1,No
2018/12/30,01:10,0.226,0.192,0.311,0.292,0.277,0.156,0.094,west-northwest,5.6,No
2018/12/30,01:20,0.224,0.192,0.312,0.293,0.276,0.156,0.094,west-northwest,5.0,No
2018/12/30,01:30,0.224,0.192,0.312,0.292,0.276,0.155,0.094,west-northwest,4.5,No
2018/12/30,01:40,0.225,0.192,0.312,0.291,0.276,0.156,0.095,west-northwest,4.4,No
2018/12/30,01:50,0.225,0.192,0.311,0.292,0.276,0.155,0.094,west-northwest,5.3,No
2018/12/30,02:00,0.224,0.193,0.311,0.293,0.276,0.155,0.095,west-northwest,5.9,No
2018/12/30,02:10,0.223,0.192,0.311,0.293,0.277,0.155,0.094,west-northwest,5.5,No
2018/12/30,02:20,0.224,0.192,0.311,0.292,0.276,0.155,0.094,west-northwest,6.0,No
2018/12/30,02:30,0.224,0.191,0.312,0.291,0.276,0.155,0.095,west-northwest,5.1,No
2018/12/30,02:40,0.225,0.193,0.311,0.292,0.277,0.154,0.094,west-northwest,5.3,No
2018/12/30,02:50,0.225,0.193,0.312,0.292,0.276,0.155,0.094,west-northwest,5.8,No
2018/12/30,03:00,0.224,0.193,0.312,0.292,0.276,0.155,0.095,west,5.3,No
2018/12/30,03:10,0.225,0.192,0.311,0.293,0.275,0.155,0.095,west-northwest,5.6,No
2018/12/30,03:20,0.224,0.191,0.311,0.291,0.276,0.155,0.094,west,7.1,No
2018/12/30,03:30,0.223,0.192,0.310,0.292,0.277,0.155,0.094,west,8.9,No
2018/12/30,03:40,0.224,0.192,0.312,0.291,0.276,0.155,0.094,west-northwest,9.3,No
2018/12/30,03:50,0.223,0.192,0.312,0.292,0.278,0.155,0.094,west-northwest,8.6,No
2018/12/30,04:00,0.225,0.193,0.313,0.292,0.276,0.155,0.094,west-northwest,6.6,No
2018/12/30,04:10,0.224,0.191,0.312,0.291,0.278,0.154,0.095,west-northwest,7.0,No
2018/12/30,04:20,0.224,0.192,0.312,0.292,0.276,0.155,0.094,west-northwest,7.3,No
2018/12/30,04:30,0.223,0.192,0.311,0.292,0.277,0.155,0.094,west-northwest,5.3,No
2018/12/30,04:40,0.224,0.192,0.312,0.292,0.275,0.155,0.094,west-northwest,3.1,No
2018/12/30,04:50,0.224,0.192,0.311,0.293,0.276,0.155,0.095,northwest,3.2,No
2018/12/30,05:00,0.223,0.192,0.312,0.291,0.276,0.154,0.094,northwest,3.1,No
2018/12/30,05:10,0.225,0.193,0.312,0.292,0.276,0.155,0.094,northwest,2.1,No
2018/12/30,05:20,0.223,0.192,0.310,0.292,0.278,0.155,0.095,northwest,2.7,No
2018/12/30,05:30,0.224,0.193,0.311,0.291,0.276,0.155,0.094,north-northwest,1.5,No
2018/12/30,05:40,0.224,0.193,0.311,0.292,0.276,0.154,0.095,west-northwest,0.9,No
2018/12/30,05:50,0.224,0.193,0.312,0.291,0.275,0.154,0.095,northwest,1.8,No
2018/12/30,06:00,0.223,0.192,0.311,0.292,0.276,0.155,0.095,northwest,1.4,No
2018/12/30,06:10,0.224,0.192,0.312,0.291,0.275,0.154,0.094,west-northwest,1.9,No
2018/12/30,06:20,0.224,0.192,0.311,0.291,0.276,0.154,0.094,northwest,0.7,No
2018/12/30,06:30,0.223,0.193,0.312,0.292,0.275,0.155,0.094,north-northeast,1.9,No
2018/12/30,06:40,0.224,0.192,0.311,0.292,0.276,0.155,0.095,north-northeast,1.4,No
2018/12/30,06:50,0.225,0.191,0.312,0.292,0.276,0.156,0.094,northeast,1.2,No
2018/12/30,07:00,0.224,0.192,0.312,0.292,0.275,0.155,0.094,north-northeast,1.4,No
2018/12/30,07:10,0.224,0.192,0.312,0.292,0.276,0.155,0.094,north,1.2,No
2018/12/30,07:20,0.223,0.192,0.311,0.290,0.277,0.154,0.095,north,1.7,No
2018/12/30,07:30,0.224,0.193,0.310,0.291,0.277,0.154,0.095,north,1.5,No
2018/12/30,07:40,0.223,0.192,0.312,0.292,0.277,0.154,0.094,northwest,1.1,No
2018/12/30,07:50,0.224,0.192,0.310,0.291,0.275,0.154,0.094,north-northeast,0.8,No
2018/12/30,08:00,0.223,0.191,0.312,0.289,0.274,0.155,0.094,north-northeast,0.9,No
2018/12/30,08:10,0.225,0.192,0.312,0.291,0.275,0.154,0.094,-,CALM,No
2018/12/30,08:20,0.223,0.193,0.311,0.291,0.275,0.154,0.095,northeast,1.1,No
2018/12/30,08:30,0.223,0.191,0.311,0.292,0.276,0.154,0.094,east-southeast,1.5,No
2018/12/30,08:40,0.224,0.192,0.311,0.290,0.275,0.155,0.094,southwest,1.1,No
2018/12/30,08:50,0.224,0.193,0.311,0.290,0.275,0.154,0.094,east-northeast,1.6,No
2018/12/30,09:00,0.225,0.193,0.312,0.293,0.276,0.154,0.094,east,1.1,No
2018/12/30,09:10,0.224,0.192,0.311,0.291,0.276,0.155,0.093,-,CALM,No
2018/12/30,09:20,0.224,0.192,0.313,0.290,0.274,0.155,0.094,north,3.2,No
2018/12/30,09:30,0.224,0.193,0.311,0.291,0.276,0.154,0.093,east-northeast,0.9,No
2018/12/30,09:40,0.224,0.191,0.311,0.290,0.276,0.154,0.094,east,0.8,No
2018/12/30,09:50,0.224,0.192,0.312,0.291,0.276,0.156,0.093,northwest,1.0,No
2018/12/30,10:00,0.225,0.192,0.311,0.290,0.276,0.155,0.094,west-northwest,2.5,No
2018/12/30,10:10,0.224,0.191,0.311,0.291,0.276,0.155,0.094,west-northwest,4.2,No
2018/12/30,10:20,0.223,0.191,0.311,0.293,0.274,0.155,0.094,west,6.1,No
2018/12/30,10:30,0.223,0.191,0.312,0.291,0.275,0.155,0.093,west,7.5,No
2018/12/30,10:40,0.224,0.191,0.311,0.292,0.278,0.155,0.093,west-northwest,7.9,No
2018/12/30,10:50,0.224,0.191,0.312,0.291,0.275,0.155,0.095,west-northwest,9.8,No
2018/12/30,11:00,0.224,0.190,0.311,0.291,0.276,0.155,0.094,west,8.3,No
2018/12/30,11:10,0.223,0.192,0.313,0.293,0.278,0.154,0.094,west,14.2,No
2018/12/30,11:20,0.223,0.192,0.311,0.292,0.276,0.154,0.094,west-northwest,11.7,No
2018/12/30,11:30,0.223,0.193,0.312,0.292,0.277,0.155,0.094,west-northwest,9.8,No
2018/12/30,11:40,0.224,0.192,0.311,0.293,0.277,0.154,0.094,west-northwest,11.5,No
2018/12/30,11:50,0.223,0.191,0.311,0.292,0.277,0.155,0.094,west,14.8,No
2018/12/30,12:00,0.222,0.192,0.311,0.292,0.276,0.156,0.093,west,12.3,No
2018/12/30,12:10,0.223,0.192,0.311,0.292,0.277,0.155,0.094,west,13.3,No
2018/12/30,12:20,0.223,0.193,0.311,0.291,0.276,0.155,0.094,west,12.0,No
2018/12/30,12:30,0.222,0.191,0.312,0.291,0.277,0.154,0.094,west-northwest,12.6,No
2018/12/30,12:40,0.223,0.193,0.310,0.292,0.277,0.155,0.094,west-northwest,12.3,No
2018/12/30,12:50,0.224,0.192,0.310,0.292,0.276,0.154,0.095,west-northwest,11.2,No
2018/12/30,13:00,0.224,0.192,0.312,0.292,0.278,0.156,0.093,west-northwest,12.0,No
2018/12/30,13:10,0.223,0.191,0.312,0.293,0.278,0.156,0.095,west-northwest,13.3,No
2018/12/30,13:20,0.224,0.191,0.310,0.291,0.278,0.155,0.095,west-northwest,13.7,No
2018/12/30,13:30,0.224,0.192,0.313,0.292,0.279,0.155,0.093,west-northwest,14.0,No
2018/12/30,13:40,0.222,0.192,0.313,0.293,0.279,0.155,0.095,west-northwest,8.7,No
2018/12/30,13:50,0.223,0.192,0.313,0.293,0.278,0.155,0.094,west,10.9,No
2018/12/30,14:00,0.225,0.192,0.313,0.292,0.277,0.155,0.095,west-northwest,9.2,No
2018/12/30,14:10,0.224,0.194,0.313,0.293,0.279,0.155,0.094,west-northwest,11.5,No
2018/12/30,14:20,0.225,0.192,0.313,0.293,0.277,0.155,0.094,west,9.5,No
2018/12/30,14:30,0.224,0.192,0.313,0.291,0.277,0.155,0.095,west-northwest,10.6,No
2018/12/30,14:40,0.226,0.194,0.313,0.292,0.279,0.155,0.094,west-northwest,12.8,No
2018/12/30,14:50,0.224,0.192,0.311,0.292,0.278,0.155,0.094,west-northwest,11.7,No
2018/12/30,15:00,0.224,0.192,0.312,0.292,0.279,0.156,0.094,west-northwest,9.2,No
2018/12/30,15:10,0.225,0.193,0.314,0.292,0.279,0.155,0.095,west-northwest,8.6,No
2018/12/30,15:20,0.224,0.193,0.314,0.292,0.280,0.156,0.095,west-northwest,8.3,No
2018/12/30,15:30,0.226,0.193,0.312,0.292,0.279,0.155,0.095,west-northwest,9.8,No
2018/12/30,15:40,0.225,0.192,0.312,0.292,0.277,0.156,0.094,west-northwest,8.4,No
2018/12/30,15:50,0.225,0.193,0.313,0.293,0.278,0.155,0.094,west-northwest,5.0,No
2018/12/30,16:00,0.224,0.193,0.313,0.293,0.279,0.156,0.095,west-northwest,4.6,Yes
2018/12/30,16:10,0.225,0.194,0.313,0.293,0.278,0.156,0.096,northwest,3.0,No
2018/12/30,16:20,0.225,0.194,0.312,0.292,0.277,0.156,0.094,northwest,2.0,No
2018/12/30,16:30,0.227,0.193,0.313,0.293,0.279,0.155,0.094,west-northwest,1.4,No
2018/12/30,16:40,0.226,0.195,0.314,0.294,0.278,0.156,0.095,north-northeast,1.0,No
2018/12/30,16:50,0.225,0.193,0.312,0.293,0.278,0.155,0.095,north,1.6,No
2018/12/30,17:00,0.226,0.194,0.313,0.293,0.276,0.156,0.095,north-northwest,1.8,No
2018/12/30,17:10,0.227,0.193,0.313,0.294,0.278,0.156,0.095,north-northwest,2.3,No
2018/12/30,17:20,0.226,0.193,0.311,0.293,0.278,0.156,0.095,north-northwest,4.6,No
2018/12/30,17:30,0.226,0.192,0.314,0.293,0.279,0.154,0.094,north-northwest,6.0,No
2018/12/30,17:40,0.226,0.193,0.314,0.294,0.277,0.155,0.094,northwest,6.0,No
2018/12/30,17:50,0.225,0.193,0.313,0.293,0.278,0.155,0.094,west-northwest,5.4,No
2018/12/30,18:00,0.224,0.193,0.312,0.293,0.277,0.155,0.094,west-northwest,7.1,No
2018/12/30,18:10,0.225,0.193,0.311,0.292,0.277,0.156,0.095,northwest,4.5,No
2018/12/30,18:20,0.225,0.193,0.313,0.293,0.277,0.156,0.094,northwest,4.3,No
2018/12/30,18:30,0.225,0.193,0.312,0.294,0.277,0.156,0.094,northwest,6.1,No
2018/12/30,18:40,0.223,0.192,0.312,0.294,0.276,0.155,0.095,northwest,6.1,No
2018/12/30,18:50,0.224,0.194,0.312,0.292,0.278,0.156,0.094,northwest,5.8,No
2018/12/30,19:00,0.225,0.193,0.313,0.293,0.277,0.155,0.095,northwest,2.7,No
2018/12/30,19:10,0.225,0.192,0.312,0.292,0.277,0.156,0.094,northwest,3.8,No
2018/12/30,19:20,0.225,0.193,0.313,0.293,0.277,0.156,0.095,northwest,5.8,No
2018/12/30,19:30,0.225,0.193,0.312,0.293,0.276,0.156,0.095,northwest,7.9,No
2018/12/30,19:40,0.226,0.194,0.312,0.292,0.276,0.156,0.094,northwest,7.5,No
2018/12/30,19:50,0.225,0.193,0.313,0.292,0.277,0.156,0.094,northwest,6.0,No
2018/12/30,20:00,0.224,0.193,0.312,0.293,0.278,0.156,0.094,northwest,5.9,No
2018/12/30,20:10,0.225,0.193,0.313,0.293,0.277,0.155,0.094,northwest,4.9,No
2018/12/30,20:20,0.224,0.193,0.313,0.292,0.277,0.156,0.095,northwest,4.2,No
2018/12/30,20:30,0.225,0.193,0.312,0.293,0.277,0.155,0.094,north-northwest,2.1,No
2018/12/30,20:40,0.225,0.192,0.312,0.293,0.277,0.156,0.096,north-northwest,1.5,No
2018/12/30,20:50,0.225,0.192,0.313,0.292,0.276,0.156,0.095,northwest,0.6,No
2018/12/30,21:00,0.224,0.192,0.313,0.293,0.278,0.156,0.095,-,CALM,No
2018/12/30,21:10,0.224,0.193,0.313,0.293,0.276,0.155,0.094,west,2.0,No
2018/12/30,21:20,0.225,0.193,0.312,0.293,0.278,0.156,0.095,west,2.8,No
2018/12/30,21:30,0.225,0.193,0.313,0.293,0.277,0.156,0.095,west,5.0,No
2018/12/30,21:40,0.224,0.193,0.312,0.293,0.276,0.156,0.094,west,6.1,No
2018/12/30,21:50,0.224,0.193,0.313,0.293,0.277,0.155,0.095,west,6.6,No
2018/12/30,22:00,0.224,0.193,0.312,0.293,0.277,0.155,0.094,west-northwest,7.4,No
2018/12/30,22:10,0.225,0.193,0.314,0.293,0.276,0.156,0.094,west-northwest,8.6,No
2018/12/30,22:20,0.225,0.193,0.312,0.294,0.276,0.156,0.094,west-northwest,6.7,No
2018/12/30,22:30,0.225,0.192,0.312,0.292,0.277,0.156,0.094,west-northwest,5.6,No
2018/12/30,22:40,0.225,0.194,0.312,0.294,0.276,0.157,0.094,west-northwest,4.8,No
2018/12/30,22:50,0.224,0.193,0.312,0.292,0.278,0.156,0.095,west-northwest,4.4,No
2018/12/30,23:00,0.225,0.193,0.312,0.292,0.276,0.156,0.094,west-northwest,5.1,No
2018/12/30,23:10,0.224,0.193,0.313,0.293,0.277,0.156,0.094,west-northwest,6.1,No
2018/12/30,23:20,0.225,0.192,0.313,0.294,0.278,0.156,0.095,west-northwest,6.7,No
2018/12/30,23:30,0.225,0.193,0.312,0.293,0.276,0.155,0.094,west-northwest,5.1,No
2018/12/30,23:40,0.224,0.193,0.312,0.293,0.276,0.155,0.095,west-northwest,6.7,No
2018/12/30,23:50,0.225,0.193,0.313,0.293,0.275,0.155,0.095,west-northwest,6.8,No
